Windom, MN

8:29 AM CST on December 12, 2017 (GMT -0600)
Windom Municipal

Weather History for KMWM - February, 2014

Change the Weather History Date:

Thursday, February 27, 2014

  Actual Average Record
Temperature  
Mean Temperature -5 °F -  
Max Temperature 1 °F 35 °F 54 °F (1974)
Min Temperature -11 °F 19 °F -15 °F (1962)
Degree Days  
Heating Degree Days 70    
Moisture  
Dew Point -14 °F    
Average Humidity 65    
Maximum Humidity 78    
Minimum Humidity 50    
Precipitation  
Precipitation 0.00 in - - ()
Sea Level Pressure  
Sea Level Pressure 30.06 in    
Wind  
Wind Speed 14 mph (North)    
Max Wind Speed 24 mph    
Max Gust Speed 31 mph    
Visibility 10 miles    
Events      
Averages and records for this station are not official NWS values.
T = Trace of Precipitation, MM = Missing Value Source: NWS Daily Summary

Daily Weather History Graph

Daily Weather History Graph

Search for Another Location

Airport or City:

Trip Planner

Search our weather history database for the weather conditions in past years. The results will help you decide how hot, cold, wet, or windy it might be!

Date:

Astronomy

Feb. 27, 2014 Rise Set
Actual Time 7:00 AM CST 6:06 PM CST
Civil Twilight 6:31 AM CST 6:35 PM CST
Nautical Twilight 5:58 AM CST 7:08 PM CST
Astronomical Twilight 5:24 AM CST 7:42 PM CST
Moon 5:36 AM CST (2/27) 4:31 PM CST (2/27)
Length of Visible Light 12h 03m
Length of Day
11h 05m
Waning Crescent, 4% of the Moon is Illuminated
Feb 27
Waning Crescent
Mar 1
New
Mar 8
First Quarter
Mar 16
Full
Mar 23
Last Quarter

Hourly Weather History & Observations

Time (CST) Temp. Windchill Dew Point Humidity Pressure Visibility Wind Dir Wind Speed Gust Speed Precip Events Conditions
12:12 AM -2.2 °F -26.7 °F -9.4 °F 71% 29.98 in 5.0 mi NW 24.2 mph - N/A   Haze
12:33 AM -4.0 °F -29.1 °F -11.2 °F 71% 29.99 in 5.0 mi NW 24.2 mph 28.8 mph N/A   Haze
12:52 AM -5.8 °F -31.0 °F -14.8 °F 65% 30.00 in 7.0 mi NW 23.0 mph 31.1 mph N/A   Clear
1:12 AM -5.8 °F -30.5 °F -14.8 °F 65% 30.01 in 7.0 mi NW 21.9 mph 25.3 mph N/A   Clear
1:33 AM -5.8 °F -31.0 °F -14.8 °F 65% 30.01 in 10.0 mi NW 23.0 mph 27.6 mph N/A   Clear
1:52 AM -5.8 °F -30.5 °F -14.8 °F 65% 30.02 in 7.0 mi NW 21.9 mph 28.8 mph N/A   Clear
2:12 AM -5.8 °F -30.5 °F -16.6 °F 60% 30.02 in 10.0 mi NW 21.9 mph - N/A   Clear
2:33 AM -7.6 °F -31.7 °F -16.6 °F 65% 30.03 in 10.0 mi NW 19.6 mph 24.2 mph N/A   Clear
2:52 AM -7.6 °F -29.8 °F -16.6 °F 65% 30.04 in 10.0 mi NW 16.1 mph - N/A   Clear
3:12 AM -7.6 °F -30.5 °F -16.6 °F 65% 30.04 in 10.0 mi NW 17.3 mph - N/A   Clear
3:33 AM -9.4 °F -33.5 °F -16.6 °F 71% 30.05 in 10.0 mi NW 18.4 mph - N/A   Clear
3:52 AM -9.4 °F -32.8 °F -18.4 °F 65% 30.06 in 10.0 mi NW 17.3 mph - N/A   Clear
4:12 AM -9.4 °F -32.8 °F -18.4 °F 65% 30.06 in 10.0 mi NW 17.3 mph - N/A   Clear
4:33 AM -9.4 °F -33.5 °F -18.4 °F 65% 30.07 in 10.0 mi NW 18.4 mph - N/A   Clear
4:52 AM -9.4 °F -32.8 °F -18.4 °F 65% 30.07 in 10.0 mi NNW 17.3 mph - N/A   Clear
5:13 AM -9.4 °F -32.1 °F -18.4 °F 65% 30.08 in 10.0 mi NNW 16.1 mph - N/A   Clear
5:33 AM -9.4 °F -29.8 °F -18.4 °F 65% 30.09 in 10.0 mi NW 12.7 mph - N/A   Clear
5:52 AM -11.2 °F -33.7 °F -18.4 °F 70% 30.09 in 10.0 mi NNW 15.0 mph - N/A   Clear
6:13 AM -11.2 °F -32.9 °F -18.4 °F 70% 30.10 in 10.0 mi NNW 13.8 mph - N/A   Clear
6:33 AM -11.2 °F -32.1 °F -18.4 °F 70% 30.10 in 10.0 mi NNW 12.7 mph - N/A   Clear
6:52 AM -11.2 °F -32.1 °F -18.4 °F 70% 30.11 in 10.0 mi NW 12.7 mph - N/A   Clear
7:13 AM -11.2 °F -31.1 °F -20.2 °F 64% 30.11 in 10.0 mi NNW 11.5 mph - N/A   Clear
7:33 AM -11.2 °F -29.0 °F -18.4 °F 70% 30.11 in 10.0 mi NW 9.2 mph - N/A   Clear
7:52 AM -11.2 °F -32.1 °F -18.4 °F 70% 30.12 in 10.0 mi NNW 12.7 mph - N/A   Clear
8:13 AM -9.4 °F -28.9 °F -20.2 °F 59% 30.12 in 10.0 mi NNW 11.5 mph - N/A   Clear
8:33 AM -9.4 °F -29.8 °F -18.4 °F 65% 30.13 in 10.0 mi NNW 12.7 mph - N/A   Clear
8:52 AM -9.4 °F -27.9 °F -18.4 °F 65% 30.14 in 10.0 mi North 10.4 mph - N/A   Clear
9:13 AM -9.4 °F -27.9 °F -18.4 °F 65% 30.14 in 10.0 mi North 10.4 mph - N/A   Clear
9:33 AM -7.6 °F -24.6 °F -18.4 °F 59% 30.15 in 10.0 mi NNW 9.2 mph - N/A   Clear
9:52 AM -7.6 °F -22.1 °F -20.2 °F 54% 30.15 in 10.0 mi North 6.9 mph - N/A   Clear
10:13 AM -7.6 °F -22.1 °F -18.4 °F 59% 30.15 in 10.0 mi NNW 6.9 mph - N/A   Clear
10:33 AM -5.8 °F -18.4 °F -20.2 °F 50% 30.15 in 10.0 mi NNW 5.8 mph - N/A   Clear
10:52 AM -5.8 °F - -18.4 °F 55% 30.15 in 10.0 mi Calm Calm - N/A   Clear
11:13 AM -5.8 °F -14.5 °F -18.4 °F 55% 30.14 in 10.0 mi North 3.5 mph - N/A   Clear
11:33 AM -5.8 °F - -18.4 °F 55% 30.14 in 10.0 mi Calm Calm - N/A   Clear
11:52 AM -4.0 °F - -16.6 °F 55% 30.14 in 10.0 mi Calm Calm - N/A   Clear
12:13 PM -4.0 °F -12.4 °F -14.8 °F 60% 30.13 in 10.0 mi NNW 3.5 mph - N/A   Clear
12:33 PM -2.2 °F -10.4 °F -14.8 °F 55% 30.12 in 10.0 mi NW 3.5 mph - N/A   Clear
12:52 PM -2.2 °F -10.4 °F -14.8 °F 55% 30.11 in 10.0 mi North 3.5 mph - N/A   Clear
1:13 PM -2.2 °F -12.5 °F -11.2 °F 66% 30.10 in 10.0 mi NNE 4.6 mph - N/A   Clear
1:33 PM -0.4 °F - -13.0 °F 55% 30.09 in 10.0 mi Calm Calm - N/A   Clear
1:52 PM -0.4 °F - -11.2 °F 60% 30.09 in 10.0 mi Calm Calm - N/A   Clear
2:13 PM -0.4 °F - -13.0 °F 55% 30.08 in 10.0 mi Calm Calm - N/A   Clear
2:33 PM -0.4 °F - -9.4 °F 66% 30.07 in 10.0 mi Calm Calm - N/A   Clear
2:52 PM -0.4 °F - -9.4 °F 66% 30.07 in 10.0 mi Calm Calm - N/A   Clear
3:13 PM -0.4 °F - -11.2 °F 60% 30.07 in 10.0 mi Calm Calm - N/A   Clear
3:33 PM 1.4 °F - -11.2 °F 56% 30.07 in 10.0 mi Calm Calm - N/A   Clear
3:52 PM 1.4 °F -11.3 °F -11.2 °F 56% 30.06 in 10.0 mi SE 6.9 mph - N/A   Clear
4:13 PM 1.4 °F -8.3 °F -11.2 °F 56% 30.05 in 10.0 mi ESE 4.6 mph - N/A   Clear
4:33 PM -0.4 °F -10.4 °F -11.2 °F 60% 30.04 in 10.0 mi ESE 4.6 mph - N/A   Clear
4:52 PM -0.4 °F -10.4 °F -11.2 °F 60% 30.03 in 10.0 mi SE 4.6 mph - N/A   Clear
5:13 PM -0.4 °F -13.4 °F -9.4 °F 66% 30.03 in 10.0 mi SSE 6.9 mph - N/A   Clear
5:33 PM -0.4 °F -14.7 °F -9.4 °F 66% 30.03 in 10.0 mi SE 8.1 mph - N/A   Clear
5:52 PM -0.4 °F -10.4 °F -9.4 °F 66% 30.02 in 10.0 mi ESE 4.6 mph - N/A   Clear
6:13 PM -2.2 °F -15.6 °F -9.4 °F 71% 30.02 in 10.0 mi SE 6.9 mph - N/A   Clear
6:33 PM -2.2 °F -15.6 °F -11.2 °F 66% 30.02 in 10.0 mi SE 6.9 mph - N/A   Clear
6:52 PM -2.2 °F -15.6 °F -9.4 °F 71% 30.02 in 10.0 mi SE 6.9 mph - N/A   Clear
7:12 PM -2.2 °F -14.2 °F -9.4 °F 71% 30.02 in 10.0 mi ESE 5.8 mph - N/A   Clear
7:33 PM -4.0 °F -17.8 °F -9.4 °F 78% 30.01 in 10.0 mi ESE 6.9 mph - N/A   Clear
7:52 PM -4.0 °F -17.8 °F -9.4 °F 78% 30.00 in 10.0 mi SE 6.9 mph - N/A   Clear
8:12 PM -4.0 °F -17.8 °F -9.4 °F 78% 30.00 in 10.0 mi SE 6.9 mph - N/A   Clear
8:33 PM -4.0 °F -19.0 °F -11.2 °F 71% 29.99 in 10.0 mi SE 8.1 mph - N/A   Clear
8:52 PM -5.8 °F -21.2 °F -11.2 °F 77% 29.99 in 10.0 mi SE 8.1 mph - N/A   Clear
9:12 PM -5.8 °F -21.2 °F -13.0 °F 71% 29.99 in 10.0 mi SE 8.1 mph - N/A   Clear
9:32 PM -5.8 °F -22.4 °F -11.2 °F 77% 29.99 in 10.0 mi SSE 9.2 mph - N/A   Clear
9:52 PM -5.8 °F -22.4 °F -11.2 °F 77% 29.99 in 10.0 mi SSE 9.2 mph - N/A   Clear
10:13 PM -5.8 °F -22.4 °F -11.2 °F 77% 29.97 in 10.0 mi SSE 9.2 mph - N/A   Clear
10:32 PM -5.8 °F -22.4 °F -13.0 °F 71% 29.97 in 10.0 mi SSE 9.2 mph - N/A   Clear
10:53 PM -5.8 °F -22.4 °F -13.0 °F 71% 29.96 in 10.0 mi SSE 9.2 mph - N/A   Clear
11:13 PM -5.8 °F -23.4 °F -13.0 °F 71% 29.95 in 10.0 mi SSE 10.4 mph - N/A   Clear
11:32 PM -5.8 °F -23.4 °F -13.0 °F 71% 29.94 in 10.0 mi SE 10.4 mph - N/A   Clear
11:53 PM -5.8 °F -23.4 °F -14.8 °F 65% 29.92 in 10.0 mi SE 10.4 mph - N/A   Clear